User: anonymous   Login
Location: PFO Observatory
(45.2937°N, 66.0991°W)
Time: 18:35:07
(UTC-04:00)
Language:

Cosmos 1151 Rocket - Orbit

View from above orbital plane
View from above orbital plane
View from above satellite
View from above satellite

Ground track
Ground track

The orbit data is extracted from the following two-line orbital elements,

1 11672U 80005B   15030.90067126  .00000558  00000-0  58917-4 0  2445
2 11672 082.5171 178.7155 0015692 321.7798 155.5255 14.87444697894303
Epoch (UTC): 30 January 2015 21:36:57
Eccentricity: 0.0015692
inclination: 82.5171°
perigee height: 595 km
apogee height: 617 km
right ascension of ascending node: 178.7155°
argument of perigee: 321.7798°
revolutions per day: 14.87444697
mean anomaly at epoch: 155.5255°
orbit number at epoch: 89430

The dashed part of the orbit path shows where the satellite is in the earth's shadow,  

DLR